Total_Precipitation_Accumulation
0.07 0.15 0.40 0.50 0.56 0.57 0.56 0.54 0.52 0.53 0.53 0.55 0.54 0.52 0.51 0.50 0.53 0.49 0.46 0.42 0.44 0.53 0.63 0.65 0.60 0.53 0.47 0.43 0.40 0.33 0.28 0.25 0.23 0.20 0.18 0.21 0.24 0.24 0.20 0.21 0.27 0.32 0.38
0.06 0.14 0.37 0.47 0.60 0.60 0.61 0.57 0.53 0.52 0.57 0.62 0.66 0.63 0.58 0.54 0.54 0.49 0.45 0.45 0.47 0.53 0.65 0.66 0.58 0.47 0.34 0.27 0.24 0.21 0.19 0.15 0.12 0.08 0.05 0.07 0.12 0.16 0.17 0.17 0.21 0.28 0.30
0.07 0.15 0.36 0.52 0.62 0.64 0.64 0.60 0.56 0.53 0.60 0.71 0.77 0.74 0.65 0.55 0.53 0.52 0.46 0.46 0.51 0.60 0.63 0.60 0.52 0.39 0.29 0.24 0.19 0.15 0.14 0.10 0.07 0.04 0.04 0.07 0.11 0.15 0.15 0.17 0.22 0.27 0.30
0.11 0.18 0.35 0.60 0.67 0.67 0.67 0.66 0.63 0.62 0.61 0.70 0.81 0.76 0.67 0.63 0.62 0.55 0.50 0.50 0.54 0.58 0.56 0.50 0.42 0.33 0.25 0.19 0.16 0.15 0.13 0.10 0.06 0.05 0.08 0.10 0.12 0.19 0.21 0.23 0.26 0.30 0.34
0.22 0.27 0.46 0.68 0.77 0.73 0.72 0.69 0.71 0.71 0.70 0.71 0.76 0.76 0.70 0.66 0.67 0.64 0.57 0.54 0.53 0.55 0.51 0.44 0.35 0.28 0.22 0.17 0.14 0.14 0.13 0.10 0.06 0.05 0.09 0.12 0.16 0.26 0.30 0.29 0.30 0.31 0.31
0.32 0.46 0.68 0.84 0.88 0.84 0.79 0.74 0.77 0.81 0.87 0.85 0.84 0.80 0.77 0.73 0.73 0.70 0.62 0.51 0.49 0.48 0.47 0.42 0.32 0.27 0.22 0.17 0.14 0.12 0.12 0.10 0.06 0.05 0.07 0.11 0.17 0.34 0.35 0.31 0.33 0.33 0.34
0.41 0.61 0.86 1.04 1.05 0.98 0.92 0.91 0.91 0.95 0.99 0.99 0.95 0.90 0.83 0.81 0.80 0.74 0.62 0.50 0.49 0.47 0.49 0.44 0.35 0.29 0.25 0.20 0.17 0.13 0.10 0.08 0.05 0.06 0.10 0.14 0.23 0.37 0.35 0.34 0.39 0.40 0.43
0.68 0.88 1.09 1.26 1.22 1.10 1.00 0.96 0.95 1.01 1.03 1.04 0.96 0.94 0.90 0.88 0.87 0.81 0.67 0.56 0.54 0.55 0.57 0.52 0.44 0.34 0.28 0.24 0.19 0.15 0.10 0.06 0.06 0.06 0.11 0.14 0.25 0.40 0.38 0.33 0.38 0.43 0.48
1.19 1.32 1.37 1.40 1.32 1.27 1.12 0.99 0.95 0.99 1.05 1.06 1.02 0.97 0.95 0.96 0.99 0.89 0.77 0.69 0.63 0.61 0.61 0.58 0.51 0.43 0.37 0.31 0.22 0.14 0.09 0.06 0.05 0.06 0.07 0.12 0.25 0.44 0.50 0.45 0.49 0.50 0.49
1.64 1.74 1.75 1.69 1.56 1.44 1.31 1.08 0.97 0.99 1.03 1.05 1.03 0.92 0.84 0.88 0.92 0.83 0.71 0.70 0.68 0.65 0.60 0.55 0.52 0.52 0.46 0.39 0.25 0.14 0.09 0.08 0.06 0.06 0.08 0.16 0.30 0.53 0.65 0.62 0.63 0.57 0.50
2.00 2.04 2.12 2.08 1.89 1.74 1.51 1.20 1.08 1.09 1.10 1.03 1.00 0.88 0.86 0.90 0.88 0.75 0.65 0.59 0.58 0.58 0.56 0.55 0.54 0.52 0.48 0.41 0.29 0.18 0.13 0.10 0.07 0.07 0.10 0.21 0.39 0.55 0.62 0.63 0.63 0.54 0.46
2.17 2.20 2.25 2.30 2.25 2.11 1.85 1.56 1.40 1.27 1.22 1.07 0.93 0.92 0.86 0.87 0.91 0.80 0.71 0.61 0.56 0.54 0.53 0.56 0.59 0.56 0.49 0.41 0.33 0.22 0.17 0.15 0.14 0.12 0.13 0.22 0.38 0.55 0.62 0.62 0.59 0.53 0.45
2.37 2.42 2.42 2.51 2.46 2.30 2.04 1.75 1.55 1.44 1.38 1.26 1.06 0.98 0.92 0.93 0.92 0.93 0.88 0.78 0.68 0.58 0.58 0.56 0.58 0.49 0.43 0.40 0.37 0.27 0.22 0.21 0.18 0.15 0.15 0.20 0.38 0.61 0.72 0.70 0.60 0.53 0.49
2.52 2.46 2.51 2.57 2.55 2.41 2.15 1.94 1.66 1.54 1.48 1.44 1.29 1.17 1.14 1.07 1.01 0.95 0.88 0.79 0.78 0.68 0.66 0.62 0.54 0.45 0.41 0.36 0.36 0.34 0.30 0.28 0.25 0.22 0.20 0.21 0.33 0.54 0.66 0.68 0.66 0.62 0.60
2.46 2.51 2.58 2.53 2.49 2.47 2.36 2.11 1.81 1.64 1.52 1.46 1.48 1.36 1.28 1.21 1.12 1.09 1.00 0.89 0.79 0.76 0.75 0.72 0.63 0.57 0.51 0.45 0.40 0.39 0.38 0.33 0.30 0.29 0.27 0.22 0.24 0.36 0.49 0.62 0.74 0.77 0.76
2.20 2.43 2.58 2.57 2.49 2.42 2.43 2.34 2.04 1.70 1.61 1.58 1.52 1.49 1.43 1.35 1.28 1.22 1.11 1.06 0.94 0.85 0.81 0.80 0.71 0.69 0.68 0.64 0.53 0.46 0.43 0.39 0.34 0.30 0.29 0.27 0.27 0.29 0.38 0.54 0.68 0.80 0.90
1.97 2.19 2.43 2.63 2.63 2.48 2.42 2.47 2.42 2.08 1.77 1.56 1.54 1.55 1.53 1.46 1.39 1.32 1.27 1.16 1.02 0.95 0.92 0.94 0.90 0.85 0.79 0.74 0.66 0.61 0.56 0.51 0.44 0.39 0.36 0.33 0.33 0.34 0.38 0.48 0.62 0.74 0.89
1.83 2.01 2.20 2.34 2.54 2.52 2.42 2.39 2.42 2.32 2.07 1.81 1.60 1.56 1.53 1.46 1.47 1.47 1.42 1.39 1.24 1.15 1.10 1.03 1.00 0.95 0.85 0.79 0.73 0.70 0.66 0.63 0.59 0.56 0.53 0.48 0.45 0.39 0.39 0.45 0.55 0.66 0.80
1.72 1.93 2.19 2.16 2.29 2.52 2.67 2.57 2.39 2.29 2.14 1.97 1.75 1.54 1.46 1.52 1.55 1.51 1.38 1.39 1.45 1.35 1.21 1.15 1.08 1.03 0.94 0.89 0.86 0.80 0.75 0.71 0.68 0.67 0.67 0.64 0.60 0.55 0.49 0.50 0.50 0.52 0.62
1.73 1.89 2.14 2.16 2.25 2.47 2.75 2.75 2.62 2.43 2.18 2.06 1.83 1.57 1.46 1.46 1.56 1.50 1.38 1.38 1.43 1.40 1.28 1.20 1.11 1.07 1.03 1.04 1.00 0.91 0.84 0.78 0.75 0.73 0.70 0.70 0.69 0.64 0.60 0.56 0.51 0.50 0.54
1.85 1.88 2.03 2.15 2.26 2.36 2.48 2.45 2.33 2.28 2.22 2.13 1.97 1.81 1.66 1.58 1.61 1.60 1.49 1.46 1.47 1.42 1.35 1.35 1.38 1.28 1.18 1.17 1.11 0.94 0.83 0.79 0.74 0.73 0.71 0.66 0.63 0.64 0.63 0.61 0.54 0.49 0.49
1.77 1.83 2.00 2.16 2.22 2.20 2.31 2.46 2.37 2.39 2.38 2.37 2.29 2.12 1.94 1.81 1.75 1.70 1.68 1.67 1.60 1.51 1.45 1.42 1.45 1.44 1.34 1.33 1.29 1.21 1.00 0.86 0.75 0.68 0.68 0.63 0.61 0.63 0.62 0.64 0.63 0.55 0.46
1.64 1.86 1.97 2.06 2.17 2.20 2.41 2.81 2.76 2.63 2.55 2.51 2.42 2.31 2.17 2.05 1.96 1.79 1.73 1.80 1.77 1.64 1.55 1.49 1.47 1.47 1.50 1.47 1.40 1.45 1.22 0.93 0.78 0.71 0.67 0.63 0.62 0.65 0.67 0.68 0.69 0.64 0.53
1.45 1.71 1.98 2.09 2.22 2.38 2.59 2.80 2.85 2.60 2.40 2.36 2.37 2.36 2.33 2.13 2.04 1.97 1.89 1.84 1.85 1.81 1.68 1.62 1.59 1.55 1.57 1.55 1.48 1.33 1.24 1.05 0.96 0.82 0.70 0.66 0.65 0.62 0.63 0.65 0.68 0.70 0.68
1.31 1.48 1.74 2.01 2.12 2.36 2.54 2.63 2.79 2.60 2.33 2.35 2.35 2.31 2.34 2.24 2.06 2.01 1.94 1.83 1.73 1.70 1.72 1.72 1.67 1.63 1.55 1.45 1.39 1.31 1.24 1.08 0.93 0.89 0.76 0.66 0.67 0.64 0.63 0.64 0.69 0.73 0.75
1.15 1.27 1.43 1.66 1.78 1.91 2.11 2.33 2.50 2.52 2.44 2.35 2.23 2.18 2.17 2.14 2.09 2.05 2.02 1.89 1.74 1.63 1.57 1.59 1.63 1.62 1.60 1.51 1.40 1.33 1.28 1.21 1.07 1.02 0.95 0.78 0.74 0.71 0.69 0.70 0.69 0.70 0.72